DECAYED

CZ-6A DEB, 55897 (Decayed)

Orbit data source: Space-Track

CZ-6A DEB, 55897 was space debris in SSO originally from a launch on Fri, 11 Nov 2022 UTC launched from the Taiyaun Space Center, China (TSC). Debris objects in space refer to the collection of defunct objects orbiting the Earth. Examples of debris include non-operational satellites, rocket bodies, and fragments generated from explosions, collisions, or faulty payload assembly.

Not visible in the next 10 days
Identifier
55897, 2022-151AAV
Orbit
Decayed
Country
Flag of CNCN / PRC
Related business
Manufacturer
SAST
Mission
Decayed spacecraft
Bus & Motor
Unknown
Mass
Unknown
Launch date (UTC)
2022-11-11 (4 years ago)
Launch vehicle
Unknown
Launch site
Taiyaun Space Center, China (TSC)
Object type
Payload
Rocket body
Debris
Shape & HBR
Unknown shape, 0.1 m
Radar Cross Section
Medium (>0.1 m² and <1 m²)

Expand to show TLE details & history
Last TLE update: 1 year ago

TLE from 1 year ago
0 CZ-6A DEB
1 55897U 22151AAV 25058.12407234  .09435527  24934+0  44853-1 0  9999
2 55897  98.5849 110.9278 0014449 269.2407  90.7207 15.92146194 26688
Epoch: 2025-02-27T02:58Z
TLE epoch observation values (Epoch: 2025-02-27T02:58:39.850Z)
Latitude
-0.00007°
Longitude
-90.94199°
Altitude
299.563 km
Speed
7.728 km/s
True Right ascension
07h 23m 42s
True Declination
0° 00' 00"
Sunlit
Object was in full shadow at epoch
Visualization orbit readout
Latitude
Unknown
Longitude
Unknown
Altitude
Unknown
Speed
Unknown
Apparent Right ascension
Unknown
Apparent Declination
Unknown
Sunlit
N/A
Visualization observer readout
Local Sidereal Time
00:39:39
Azimuth
Unknown
Elevation
Unknown
Doppler factor
Unknown
Orbital elements
Apogee altitude
302.844 km
Perigee altitude
283.565 km
Semi-major axis
6,671.342 km
Eccentricity
0.00144
Inclination
98.5849°
RAAN
110.9278°
Arg. of periapsis
269.2407°
True anomaly
90.88626°
Mean anomaly
90.7207°
Eccentric anomaly
90.80348°
Mean motion
3.98312 °/min
Orbital period
90.38 mins
BSTAR
0.044853
Loading maneuver chart data...
Computing Atmospheric mass density...
Loading historical data...
Loading historical data...
Loading historical data...
Loading historical data...
Loading historical data...
Loading historical data...
Loading historical data...

Documentation

Showing up to 5 results
|